{"data":{"norad_id":57945,"epoch":"2026-05-25T02:28:56.048736Z","epoch_age_seconds":72940,"freshness":"FRESH","line1":"1 57945U 23148L   26145.10342649  .00000040  00000+0  12300-4 0  9998","line2":"2 57945  53.1607  29.2087 0000914  78.1241 281.9864 15.34391799150127","mean_motion":15.34391799,"eccentricity":9.14e-5,"inclination_deg":53.1607,"raan_deg":29.2087,"arg_perigee_deg":78.1241,"mean_anomaly_deg":281.9864,"bstar":1.23e-5,"rev_number":15012,"period_min":93.848259677775,"perigee_km":462.10236039011,"apogee_km":463.3528704418,"semimajor_km":6840.864615416,"source":"CELESTRAK","updated_at":"2026-05-25T13:38:18.462208Z"}}